Regional Weather Roundup
Issued by NWS

Home | Current Version | Previous Version | Text Only | Print | Product List | Glossary On
Versions: 1 2 3 4 5 6 7 8 9 10 11 12 13 14 15 16 17 18 19 20 21 22 23 24 25 26 27 28
000
ASUS42 KKEY 262010
RWRKEY

FLORIDA REGIONAL WEATHER ROUNDUP FOR THE FLORIDA KEYS
NATIONAL WEATHER SERVICE KEY WEST FLORIDA
400 PM EDT FRI AUG 26 2016

...SOUTH FLORIDA AND THE KEYS...

CITY           SKY/WX    TMP DP  RH WIND       PRES   REMARKS
FORT MYERS     PTSUNNY   93  73  52 NE10      29.88F HX 102
SW REGIONAL AP MOSUNNY   93  75  55 E10       29.89F HX 104
NAPLES         LGT RAIN  85  77  77 W7        29.89F HX  95
MIAMI          PTSUNNY   90  78  68 E13       29.90F HX 104
WEST KENDALL   PTSUNNY   87  78  74 E13G20    29.89F HX 100
HOMESTEAD      MOSUNNY   89  78  70 E12       29.89F HX 101
MARATHON       SUNNY     91  78  65 E8        29.89F HX 106
BOCA CHICA NAS PTSUNNY   87  77  72 E10       29.89F THUNDER HX  99
KEY WEST INTL  CLOUDY    87  78  74 N5        29.89F HX 100

...INTERNATIONAL WEATHER...

CITY           SKY/WX    TMP DP  RH WIND       PRES   REMARKS
NASSAU BAHAMAS MOSUNNY   90  81  74 NE16      29.89F HX 108
CANCUN MEXICO  PTSUNNY   88  79  74 E6        29.86F HX 102
COZUMEL MEXICO MOSUNNY   82  79  89 S5        29.86F HX  93

ADJACENT COASTAL WATERS...

STATION/POSITION TIME  SKY/WX   TEMP    WIND        PRES    WAVE
                                AIR SEA DIR/SP/G            HT/PER
                 (UTC)          (F)     (DEG/KT/KT) (MB)    (FT/S)
PULASKI SHOAL LI 2000            86      80/  6/  7 1012.5F
SAND KEY         1950            85     110/  9/ 11 1012.8F
LONG KEY         1900            87 90   80/ 12/ 14 1012.6F
FOWEY ROCKS      2000            85 87   60/ 12/ 13 1013.2S

$$




USA.gov is the U.S. government's official web portal to all federal, state and local government web resources and services.